Simultaneous Nadir Overpasses (SNOs) Predictions

Prediction of SNOs between GOES-14 and AQUA Satellite Orbit:

Table of predicted SNOs for the next 14.0 days since TLE Epoch: 6/16/2022
Index Date Time (GOES-14) GOES-14 Lat,Lon AQUA Lat,Lon Distance(km) Time Diff (sec)
1 06/16/2022 08:23:40 -0.08,-104.49 -0.81,-101.05 391.52 80
2 06/16/2022 20:42:20 0.11,-104.76 -0.19,-106.23 166.93 80
3 06/18/2022 20:32:26 0.11,-104.77 0.44,-103.17 181.59 80
4 06/19/2022 08:50:55 -0.13,-104.50 0.70,-108.29 431.78 80
5 06/21/2022 08:38:21 -0.13,-104.52 0.05,-105.23 82.38 80
6 06/23/2022 08:28:27 -0.13,-104.53 -0.62,-102.18 267.36 80
7 06/23/2022 20:47:07 0.15,-104.81 -0.36,-107.37 290.05 80
8 06/25/2022 20:37:12 0.16,-104.83 0.27,-104.30 59.67 80
9 06/27/2022 20:24:37 0.15,-104.84 0.93,-101.24 409.40 80
10 06/28/2022 08:43:06 -0.18,-104.57 0.20,-106.37 204.02 80
